Regional Weather Roundup
Issued by NWS Goodland, KS

Home | Current Version | Previous Version | Graphics & Text | Print | Product List | Glossary On
Versions: 1 2 3 4 5 6 7 8 9 10 11 12 13 14 15 16 17 18 19 20 21 22 23 24 25 26 27 28 29 30 31 32 33 34 35 36 37 38 39 40 41 42 43 44 45 46 47 48 49 50
000
ASUS43 KGLD 260908
RWRGLD

GOODLAND FORECAST AREA HOURLY WEATHER ROUNDUP
NATIONAL WEATHER SERVICE GOODLAND KS
300 AM MDT WED APR 26 2017

...OFFICIAL OBSERVATIONS...

CITY           SKY/WX    TMP DP  RH WIND       PRES   REMARKS
GOODLAND KS    CLOUDY    35  28  75 N22G30    29.76S
HILL CITY KS   CLOUDY    39  30  70 N17       29.76R
IMPERIAL NEB   PTCLDY    31  24  75 N15       29.79S
MCCOOK NEB     CLOUDY    35  27  72 N21G28    29.77R
AKRON CO       CLOUDY    28  25  88 NW12      29.79S WCI  18
BURLINGTON CO  NOT AVBL
LIMON CO       CLOUDY    31  29  92 NW20G29   29.80R WCI  19
$$

...UNOFFICIAL OBSERVATIONS...

CITY           SKY/WX    TMP DP  RH WIND       PRES   REMARKS
LENORA KS        N/A     37  32  82 MISG        N/A
NORTON KS      CLOUDY    36  25  64 NW20      29.74
SHARON SPRINGS   N/A     36  31  83 N21         N/A
TRENTON NEB      N/A     32  32 100 NW10        N/A
KIT CARSON CO    N/A     36  32  86 MISG        N/A
YUMA CO        MOCLDY    32  28  86 NW13      29.79S
$$



USA.gov is the U.S. government's official web portal to all federal, state and local government web resources and services.